Погода в Дурбане

ЮАР     29°48′49″S   30°55′35″E
темп.,
°C
ветер,
м/с
пор.,
м/с
влажн.,
%
обл.,
%
осадки,
мм/ч
давл.,
гПа
погр.,
м
17 августа, ср
ср1723:00+15зюз33625 0.0 101380
02:00+14зсз324156 0.0 101247
05:00+14зсз33295 0.0 101151
08:00+17зсз342690 0.0 101192
11:00+27с2518100 0.0 1009449
14:00+27св5826100 0.0 1006788
17:00+22св3546100 0.0 100488
20:00+18ююз61064100 0.0 1008348
18 августа, чт
чт1823:00+17юз51168100 0.0 1008397
02:00+16юз4672100 0.0 1009259
05:00+15з3470100 0.0 1009124
08:00+18з236383 0.0 1012149
11:00+21ююв3451100 0.0 1011870
14:00+21ююв665578 0.0 1009830
17:00+19ююв5666100 0.0 1011930
20:00+17ююз3569100 0.1 1014417
19 августа, пт
пт1923:00+16юз237473 0.2 1014251
02:00+16юз2377100 0.7 1014141
05:00+16юз2479100 0.5 1013226
08:00+15ююз3587100 2.0 1015340
11:00+13юз5985100 8.0 1016595
14:00+14зюз71271100 9.6 1016941
17:00+16юз49645 0.9 1017649
20:00+13зсз33740 0.9 101992
20 августа, сб
сб2023:00+12зсз34750 0.0 101775
02:00+11зсз33750 0.0 101560
05:00+11зсз22730 0.0 101452
08:00+14з34620 0.0 1017137
11:00+18ю99579 0.0 10201363
14:00+19ююв664613 0.0 10201088
17:00+17ю812511 0.0 10221174
20:00+15ююз610510 0.0 1026741
21 августа, вс
вс2123:00+13з35540 0.0 1027258
02:00+12з23600 0.0 1028189
05:00+11сз32640 0.0 102866
08:00+13ссз23550 0.0 1029181
11:00+19св56370 0.0 10271194
14:00+19всв66470 0.0 1024804
17:00+17св58630 0.0 1024668
20:00+15с25760 0.0 1024264